Location: Hilton Head Island
(32.2163°N, 80.7526°W)
Time: 10:19:22
(UTC-05:00)

Explorer 7 - Pass Details

Date: 22 February 2026
Orbit: 430 x 542 km, 50.2° (Epoch: 5 March)

Event Time Altitude Azimuth Distance (km) Brightness Sun altitude
Rises 19:23:43 0° 321° (NW) 2,528 10.7 -15.2°
Reaches altitude 10° 19:26:02 10° 333° (NNW) 1,669 9.6 -15.7°
Maximum altitude 19:29:25 30° 36° (NE) 909 7.6 -16.4°
Enters shadow 19:29:54 29° 51° (NE) 935 7.5 -16.5°
